This demonstration page uses our WeatherBlox Daily Observations layout. Learn more.

Left ArrowRight Arrow

Hourly Observations for September 25, 2022

Temp ( °F °C ) Dew Point ( °F °C ) Humidity (%) Winds ( mph kmh ) Pressure ( in mb ) Visibility ( mi km ) Precip ( " mm )
12:55 am 00:55 Clear 63 17.4 46 8 54 54 NW 5 7 30.00 1016 10 16 0.00 0.00
1:55 am 01:55 Clear 60 15.8 47 8.3 61 61 WNW 6 9 30.02 1017 10 16 0.00 0.00
2:55 am 02:55 Clear 59 14.9 47 8.6 66 66 NW 7 11 30.03 1017 10 16 0.00 0.00
3:55 am 03:55 Clear 57 14.1 47 8.3 68 68 NW 7 11 30.06 1018 10 16 0.00 0.00
4:55 am 04:55 Clear 58 14.3 45 7.3 63 63 WNW 7 11 30.06 1018 10 16 0.00 0.00
5:55 am 05:55 Clear 56 13.5 46 7.5 67 67 NW 9 15 30.07 1018 10 16 0.00 0.00
6:55 am 06:55 Clear 56 13.3 44 6.9 65 65 NW 7 11 30.10 1019 10 16 0.00 0.00
7:55 am 07:55 Sunny 56 13.3 45 7.1 66 66 NNW 5 7 30.12 1020 10 16 0.00 0.00
8:55 am 08:55 Sunny 62 16.7 44 6.8 52 52 NW 10 17 30.12 1020 9 14 0.00 0.00
9:55 am 09:55 Sunny 65 18.4 44 6.6 46 46 NNW 10 17 30.13 1020 10 16 0.00 0.00
10:55 am 10:55 Sunny 69 20.6 43 6.2 39 39 NW 14 22 30.14 1021 10 16 0.00 0.00
11:55 am 11:55 Sunny 74 23.2 38 3.2 27 27 NW 21 33 30.14 1021 10 16 0.00 0.00
12:55 pm 12:55 Sunny 76 24.7 35 1.5 22 22 NNW 25 41 30.12 1020 10 16 0.00 0.00
1:55 pm 13:55 Sunny 78 25.4 35 1.5 21 21 NNW 20 31 30.10 1019 10 16 0.00 0.00
2:55 pm 14:55 Sunny 78 25.5 34 0.9 20 20 NNW 22 35 30.08 1019 10 16 0.00 0.00
3:55 pm 15:55 Sunny 79 26 33 0.6 19 19 NW 22 35 30.07 1018 10 16 0.00 0.00
4:55 pm 16:55 Mostly Sunny 78 25.8 33 0.4 19 19 NW 20 31 30.06 1018 10 16 0.00 0.00
5:55 pm 17:55 Sunny 77 25.1 33 0.5 20 20 NW 22 35 30.05 1018 10 16 0.00 0.00
6:55 pm 18:55 Sunny 75 23.8 32 0.1 21 21 NW 16 26 30.05 1018 10 16 0.00 0.00
7:55 pm 19:55 Clear 70 21.2 33 0.4 25 25 NNW 9 15 30.06 1018 10 16 0.00 0.00
8:55 pm 20:55 Clear 68 19.9 31 -0.7 25 25 NNW 9 15 30.08 1019 10 16 0.00 0.00
9:55 pm 21:55 Clear 65 18.4 29 -1.5 26 26 NNW 8 13 30.11 1020 10 16 0.00 0.00
10:55 pm 22:55 Clear 62 16.7 30 -1 30 30 NW 5 7 30.12 1020 10 16 0.00 0.00
11:55 pm 23:55 Clear 56 13.2 34 1.2 44 44 WNW 7 11 30.13 1020 10 16 0.00 0.00

Powered by AerisWeather